User: anonymous   Login
Location: Brede
(50.9167°N, 0.6000°E)
Time: 02:22:40
(UTC+00:00)
Language:

DELTA 2 DEB (DPAF) - Orbit

View from above orbital plane
View from above orbital plane
View from above satellite
View from above satellite

Ground track
Ground track

The orbit data is extracted from the following two-line orbital elements,

1 29110U 06016D   20302.59251669 +.00000827 +00000-0 +12965-3 0  9999
2 29110 098.3468 072.6557 0003941 155.0035 338.1800 14.75474220777438
Epoch (UTC): 28 October 2020 14:13:13
Eccentricity: 0.0003941
inclination: 98.3468°
perigee height: 641 km
apogee height: 646 km
right ascension of ascending node: 72.6557°
argument of perigee: 155.0035°
revolutions per day: 14.75474220
mean anomaly at epoch: 338.1800°
orbit number at epoch: 77743

The dashed part of the orbit path shows where the satellite is in the earth's shadow,  

DLR